Regional Weather Roundup
Issued by NWS

Home | Current Version | Previous Version | Graphics & Text | Print | Product List | Glossary On
Versions: 1 2 3 4 5 6 7 8 9 10 11 12 13 14 15 16 17 18 19 20 21 22 23 24 25 26 27 28 29 30 31 32 33 34 35 36 37 38 39 40 41 42 43 44 45 46 47 48 49 50
000
ASUS43 KOAX 241002
RWRNE

WEATHER ROUNDUP FOR NEBRASKA
NATIONAL WEATHER SERVICE OMAHA NE
400 AM CST SAT FEB 24 2018

NOTES: SATELLITE DATA IS BEING USED TO AUGMENT CLOUD COVER ABOVE
       12000 FEET.
       "FAIR" INDICATES FEW OR NO CLOUDS BELOW 12,000 FEET WITH NO
       SIGNIFICANT WEATHER AND/OR OBSTRUCTIONS TO VISIBILITY.


NEZ001>004-019>022-054>056-241100-
NEBRASKA PANHANDLE

CITY           SKY/WX    TMP DP  RH WIND       PRES   REMARKS
SCOTTSBLUFF    LGT SNOW  19  18  93 SE8       29.84F FOG     WCI   9
ALLIANCE       CLOUDY    19  18  95 S7        29.84F FOG     WCI  10
CHADRON        CLOUDY    24  18  77 SW8       29.84F WCI  15
GORDON         CLOUDY    17  13  86 CALM      29.85F
KIMBALL        FOG       22  22  98 S7        29.81S VSB 1/4 WCI  14
SIDNEY         CLOUDY    22  21  96 S12       29.84F FOG     WCI  10
$$

NEZ057>060-069>072-079>082-241100-
SOUTHWEST NEBRASKA

CITY           SKY/WX    TMP DP  RH WIND       PRES   REMARKS
NORTH PLATTE   CLOUDY    20  16  84 SE7       29.94F WCI  11
IMPERIAL       LGT SNOW  21  21 100 SE13      29.90F FOG     WCI   9
LEXINGTON      CLOUDY    23  20  90 E5        29.96F WCI  17
MCCOOK         FOG       23  23 100 E7        29.95F VSB 1   WCI  15
OGALLALA       LGT SNOW  20  19  92 CALM      29.90F VSB 1
$$

NEZ005>010-023>029-035>040-094-241100-
NORTH CENTRAL NEBRASKA

CITY           SKY/WX    TMP DP  RH WIND       PRES   REMARKS
VALENTINE      CLOUDY    14  10  84 E3        29.98F
AINSWORTH      CLOUDY    15  13  95 S3        29.97F
BROKEN BOW     CLOUDY    18  16  92 E7        29.93F WCI   9
O`NEILL        CLOUDY     9   7  93 CALM      30.03F FOG
ORD            CLOUDY    15  13  91 E3        29.99F FOG
THEDFORD       CLOUDY    17  16  93 CALM      29.93F
$$

NEZ041-046>049-061>064-073>077-083>087-241100-
SOUTH CENTRAL NEBRASKA

CITY           SKY/WX    TMP DP  RH WIND       PRES   REMARKS
GRAND ISLAND   FOG       19  17  92 NE6       30.02F VSB 1/2 WCI  11
AURORA         FOG       20  18  94 NE6       30.02F VSB 3/4 WCI  12
HASTINGS       FOG       20  19  96 NE8       30.00F VSB 3/4 WCI  10
HEBRON         MIX PCPN  26  25  96 NE7       30.02F WCI  18
HOLDREGE       CLOUDY    21  21 100 NE7       29.98F WCI  13
KEARNEY        CLOUDY    20  18  92 E8        30.00F WCI  10
YORK           FOG       19  19 100 NE7       30.03F VSB 1/2 WCI  10
$$

NEZ011>018-030>034-042>045-241100-
NORTHEAST NEBRASKA

CITY           SKY/WX    TMP DP  RH WIND       PRES   REMARKS
NORFOLK        FOG       18  17  96 E8        30.04F VSB 1/2 WCI   8
ALBION         FOG       19  17  92 E5        30.02F VSB 1/2 WCI  12
BLAIR          CLOUDY    22  20  93 NE8       30.05F FOG     WCI  12
COLUMBUS       CLOUDY    19  17  92 NE7       30.08R FOG     WCI  10
FREMONT        CLOUDY    20  20  99 E9        30.08F FOG     WCI  10
TEKAMAH        CLOUDY    21  19  92 NE8       30.09F WCI  11
WAYNE          FOG       19  18  97 E5        30.07F VSB 1/2 WCI  12
$$

NEZ050>053-065>068-078-088>093-241100-
SOUTHEAST NEBRASKA

CITY           SKY/WX    TMP DP  RH WIND       PRES   REMARKS
LINCOLN        CLOUDY    22  20  92 NE13      30.06F FOG     WCI  10
OMAHA EPPLEY   CLOUDY    23  20  88 E8        30.09F WCI  14
BEATRICE       CLOUDY    27  26  96 NE9       30.02F FOG     WCI  18
FALLS CITY     FRZ RAIN  29  27  92 E13       30.03F FOG     WCI  19
NEBRASKA CITY  MIX PCPN  27  27 100 NE12G18   30.04F WCI  16
PLATTSMOUTH    LGT SNOW  24  23  97 NE12      30.04F WCI  12
$$

NEZ044-045-051>053-067-241100-
OMAHA AREA

CITY           SKY/WX    TMP DP  RH WIND       PRES   REMARKS
OMAHA EPPLEY   CLOUDY    23  20  88 E8        30.09F WCI  14
BLAIR          CLOUDY    22  20  93 NE8       30.05F FOG     WCI  12
FREMONT        CLOUDY    20  20  99 E9        30.08F FOG     WCI  10
MILLARD        LGT SNOW  24  21  91 E3        30.08F
OFFUTT AFB     CLOUDY    23  21  93 NE8       30.07F WCI  14
PLATTSMOUTH    LGT SNOW  24  23  97 NE12      30.04F WCI  12
WAHOO          CLOUDY    21  19  93 NE9       30.07F FOG     WCI  11
$$




USA.gov is the U.S. government's official web portal to all federal, state and local government web resources and services.